Weather History for Beverly, MA

Change the Weather History Date:

Tuesday, February 11, 2014

  Actual Average Record
Temperature  
Mean Temperature 14 °F -  
Max Temperature 24 °F 34 °F 63 °F (1981)
Min Temperature 3 °F 17 °F 3 °F (2011)
Degree Days  
Heating Degree Days 52    
Moisture  
Dew Point 1 °F    
Average Humidity 57    
Maximum Humidity 84    
Minimum Humidity 35    
Precipitation  
Precipitation 0.00 in - - ()
Sea Level Pressure  
Sea Level Pressure 30.28 in    
Wind  
Wind Speed 6 mph (WNW)    
Max Wind Speed 18 mph    
Max Gust Speed 24 mph    
Visibility 10 miles    
Events      
Averages and records for this station are not official NWS values.
T = Trace of Precipitation, MM = Missing Value Source: NWS Daily Summary

Daily Weather History Graph

Daily Weather History Graph

Search for Another Location

Airport:

Trip Planner

Search our weather history database for the weather conditions in past years. The results will help you decide how hot, cold, wet, or windy it might be!

Date:

Astronomy

Feb. 11, 2014 Rise Set
Actual Time 6:45 AM EST 5:10 PM EST
Civil Twilight 6:16 AM EST 5:39 PM EST
Nautical Twilight 5:43 AM EST 6:12 PM EST
Astronomical Twilight 5:10 AM EST 6:45 PM EST
Moon 2:26 PM EST (2/11) 4:22 AM EST (2/11)
Length of Visible Light 11h 22m
Length of Day
10h 24m
Waxing Gibbous, 90% of the Moon is Illuminated
Feb 11
Waxing Gibbous
Feb 14
Full
Feb 22
Last Quarter
Mar 1
New
Mar 8
First Quarter

Hourly Weather History & Observations

Time (EST) Temp. Windchill Dew Point Humidity Pressure Visibility Wind Dir Wind Speed Gust Speed Precip Events Conditions
12:53 AM 9.0 °F - 1.0 °F 70% 30.21 in 10.0 mi Calm Calm - N/A   Clear
1:53 AM 7.0 °F 0.1 °F 1.0 °F 77% 30.21 in 10.0 mi West 3.5 mph - N/A   Clear
2:53 AM 9.0 °F 0.6 °F 1.9 °F 73% 30.22 in 10.0 mi NNW 4.6 mph - N/A   Clear
3:53 AM 3.9 °F - -0.0 °F 84% 30.22 in 10.0 mi Calm Calm - N/A   Clear
4:53 AM 7.0 °F 0.1 °F 1.0 °F 77% 30.24 in 10.0 mi WSW 3.5 mph - N/A   Clear
5:53 AM 8.1 °F -3.2 °F 1.9 °F 76% 30.25 in 10.0 mi West 6.9 mph - N/A   Clear
6:53 AM 7.0 °F -3.3 °F 1.0 °F 77% 30.25 in 10.0 mi WNW 5.8 mph - N/A   Clear
7:53 AM 10.0 °F 0.4 °F 3.0 °F 73% 30.27 in 10.0 mi WNW 5.8 mph - N/A   Clear
8:53 AM 14.0 °F 3.9 °F 3.9 °F 64% 30.28 in 10.0 mi WNW 6.9 mph - N/A   Clear
9:53 AM 19.0 °F 7.5 °F 3.0 °F 50% 30.29 in 10.0 mi WNW 10.4 mph 23.0 mph N/A   Clear
10:53 AM 19.9 °F 8.6 °F 3.0 °F 48% 30.29 in 10.0 mi NW 10.4 mph 19.6 mph N/A   Clear
11:53 AM 21.0 °F 10.6 °F 1.9 °F 44% 30.27 in 10.0 mi WNW 9.2 mph - N/A   Partly Cloudy
12:53 PM 23.0 °F 12.4 °F 3.0 °F 42% 30.24 in 10.0 mi NW 10.4 mph - N/A   Partly Cloudy
1:53 PM 23.0 °F 12.4 °F 1.9 °F 40% 30.22 in 10.0 mi WNW 10.4 mph 18.4 mph N/A   Partly Cloudy
2:53 PM 24.1 °F 13.1 °F 1.0 °F 37% 30.24 in 10.0 mi WNW 11.5 mph - N/A   Partly Cloudy
3:53 PM 24.1 °F 12.5 °F -0.0 °F 35% 30.25 in 10.0 mi NW 12.7 mph - N/A   Clear
4:53 PM 21.0 °F 10.6 °F 1.0 °F 42% 30.27 in 10.0 mi NW 9.2 mph - N/A   Clear
5:53 PM 18.0 °F 7.7 °F -0.0 °F 45% 30.31 in 10.0 mi NW 8.1 mph - N/A   Clear
6:53 PM 16.0 °F 6.3 °F -0.9 °F 47% 30.34 in 10.0 mi NW 6.9 mph - N/A   Clear
7:53 PM 17.1 °F 8.7 °F -0.9 °F 45% 30.36 in 10.0 mi WNW 5.8 mph - N/A   Clear
8:53 PM 14.0 °F 6.5 °F -0.9 °F 52% 30.38 in 10.0 mi WNW 4.6 mph - N/A   Clear
9:53 PM 10.0 °F -1.9 °F -2.9 °F 56% 30.40 in 10.0 mi NNW 8.1 mph - N/A   Clear
10:53 PM 10.9 °F 0.2 °F -2.0 °F 56% 30.41 in 10.0 mi NW 6.9 mph - N/A   Clear
11:53 PM 12.0 °F -5.6 °F -2.9 °F 51% 30.41 in 10.0 mi NW 18.4 mph 24.2 mph N/A   Clear